Weather History for KROS - March, 2013

Change the Weather History Date:

Tuesday, March 12, 2013

  Actual Average (KCBG) Record (KCBG)
Temperature  
Mean Temperature 22 °F -  
Max Temperature 30 °F 36 °F 66 °F (1990)
Min Temperature 14 °F 18 °F -14 °F (1956)
Degree Days  
Heating Degree Days 44    
Moisture  
Dew Point 13 °F    
Average Humidity 69    
Maximum Humidity 91    
Minimum Humidity 42    
Precipitation  
Precipitation 0.00 in - - ()
Sea Level Pressure  
Sea Level Pressure 29.93 in    
Wind  
Wind Speed 7 mph (NW)    
Max Wind Speed 16 mph    
Max Gust Speed 24 mph    
Visibility 10 miles    
Events      
Averages and records for this station are not official NWS values.
T = Trace of Precipitation, MM = Missing Value Source: NWS Daily Summary

Daily Weather History Graph

Daily Weather History Graph

Search for Another Location

Airport or City:

Trip Planner

Search our weather history database for the weather conditions in past years. The results will help you decide how hot, cold, wet, or windy it might be!

Date:

Astronomy

Mar. 12, 2013 Rise Set
Actual Time 7:29 AM CDT 7:14 PM CDT
Civil Twilight 7:00 AM CDT 7:43 PM CDT
Nautical Twilight 6:25 AM CDT 8:18 PM CDT
Astronomical Twilight 5:50 AM CDT 8:53 PM CDT
Moon 7:31 AM CDT (3/12) 8:36 PM CDT (3/12)
Length of Visible Light 12h 43m
Length of Day
11h 44m
New Moon, 1% of the Moon is Illuminated
Mar 12
New Moon
Mar 19
First Quarter
Mar 27
Full
Apr 2
Last Quarter
Apr 10
New

Hourly Weather History & Observations

Time (CDT) Temp. Windchill Dew Point Humidity Pressure Visibility Wind Dir Wind Speed Gust Speed Precip Events Conditions
12:35 AM 21.7 °F 14.3 °F 18.0 °F 85% 29.80 in 10.0 mi West 5.8 mph - N/A   Mostly Cloudy
12:55 AM 21.6 °F 14.0 °F 17.2 °F 83% 29.80 in 10.0 mi West 5.8 mph - N/A   Mostly Cloudy
1:15 AM 19.9 °F 12.1 °F 16.0 °F 85% 29.80 in 10.0 mi West 5.8 mph - N/A   Scattered Clouds
1:35 AM 18.5 °F 11.7 °F 14.9 °F 86% 29.80 in 10.0 mi West 4.6 mph - N/A   Scattered Clouds
1:55 AM 18.1 °F 11.3 °F 14.9 °F 87% 29.80 in 10.0 mi West 4.6 mph - N/A   Mostly Cloudy
2:15 AM 17.6 °F 10.7 °F 14.4 °F 87% 29.81 in 10.0 mi West 4.6 mph - N/A   Overcast
2:35 AM 16.7 °F 9.6 °F 13.8 °F 88% 29.81 in 10.0 mi West 4.6 mph - N/A   Scattered Clouds
2:55 AM 16.3 °F 9.2 °F 13.6 °F 89% 29.81 in 10.0 mi West 4.6 mph - N/A   Scattered Clouds
3:15 AM 15.4 °F 8.1 °F 12.9 °F 90% 29.81 in 10.0 mi West 4.6 mph - N/A   Mostly Cloudy
3:35 AM 14.5 °F 7.1 °F 12.4 °F 91% 29.81 in 10.0 mi West 4.6 mph - N/A   Overcast
3:55 AM 16.2 °F 10.6 °F 14.0 °F 91% 29.81 in 10.0 mi WNW 3.5 mph - N/A   Overcast
4:15 AM 16.7 °F 9.6 °F 14.2 °F 90% 29.81 in 10.0 mi West 4.6 mph - N/A   Overcast
4:35 AM 17.2 °F 10.2 °F 14.7 °F 90% 29.81 in 10.0 mi West 4.6 mph - N/A   Overcast
4:55 AM 17.6 °F 12.3 °F 14.7 °F 88% 29.81 in 10.0 mi West 3.5 mph - N/A   Overcast
5:15 AM 17.6 °F 12.3 °F 14.5 °F 88% 29.81 in 10.0 mi WNW 3.5 mph - N/A   Overcast
5:35 AM 18.0 °F 9.8 °F 14.7 °F 87% 29.82 in 10.0 mi WNW 5.8 mph - N/A   Overcast
5:55 AM 18.3 °F 9.1 °F 14.7 °F 86% 29.83 in 10.0 mi WNW 6.9 mph - N/A   Overcast
6:15 AM 17.6 °F 9.3 °F 14.0 °F 86% 29.84 in 10.0 mi WNW 5.8 mph - N/A   Overcast
6:35 AM 17.4 °F 9.1 °F 13.8 °F 86% 29.84 in 10.0 mi WNW 5.8 mph - N/A   Overcast
6:55 AM 17.6 °F 9.3 °F 13.8 °F 85% 29.85 in 10.0 mi NW 5.8 mph - N/A   Overcast
7:15 AM 17.6 °F 10.7 °F 13.5 °F 84% 29.85 in 10.0 mi WNW 4.6 mph - N/A   Overcast
7:35 AM 17.6 °F 9.3 °F 13.3 °F 83% 29.86 in 10.0 mi WNW 5.8 mph - N/A   Overcast
7:56 AM 17.6 °F 9.3 °F 13.1 °F 83% 29.86 in 10.0 mi WNW 5.8 mph - N/A   Overcast
8:15 AM 17.8 °F 8.5 °F 12.9 °F 81% 29.86 in 10.0 mi WNW 6.9 mph - N/A   Overcast
8:35 AM 17.6 °F 8.2 °F 12.2 °F 79% 29.86 in 10.0 mi WNW 6.9 mph - N/A   Overcast
8:55 AM 17.6 °F 8.2 °F 11.8 °F 78% 29.87 in 10.0 mi WNW 6.9 mph - N/A   Overcast
9:15 AM 18.5 °F 7.5 °F 12.2 °F 76% 29.88 in 10.0 mi WNW 9.2 mph - N/A   Overcast
9:35 AM 19.2 °F 8.4 °F 12.2 °F 74% 29.88 in 10.0 mi WNW 9.2 mph - N/A   Overcast
9:55 AM 19.8 °F 9.9 °F 12.9 °F 75% 29.89 in 10.0 mi WNW 8.1 mph - N/A   Overcast
10:15 AM 21.0 °F 9.9 °F 12.9 °F 71% 29.89 in 10.0 mi NW 10.4 mph 16.1 mph N/A   Overcast
10:35 AM 22.1 °F 12.8 °F 13.5 °F 69% 29.90 in 10.0 mi WNW 8.1 mph - N/A   Overcast
10:55 AM 23.0 °F 13.1 °F 12.9 °F 65% 29.90 in 10.0 mi NW 9.2 mph - N/A   Mostly Cloudy
11:15 AM 24.4 °F 14.2 °F 13.1 °F 62% 29.90 in 10.0 mi WNW 10.4 mph 18.4 mph N/A   Scattered Clouds
11:35 AM 24.6 °F 14.4 °F 13.1 °F 62% 29.91 in 10.0 mi WNW 10.4 mph 17.3 mph N/A   Clear
11:55 AM 25.3 °F 14.7 °F 13.8 °F 62% 29.91 in 10.0 mi West 11.5 mph - N/A   Clear
12:15 PM 25.3 °F 14.1 °F 13.6 °F 61% 29.91 in 10.0 mi WNW 12.7 mph - N/A   Scattered Clouds
12:35 PM 26.4 °F 15.5 °F 14.4 °F 60% 29.92 in 10.0 mi WNW 12.7 mph - N/A   Scattered Clouds
12:55 PM 27.1 °F 15.9 °F 14.7 °F 60% 29.92 in 10.0 mi WNW 13.8 mph 17.3 mph N/A   Mostly Cloudy
1:15 PM 27.0 °F 16.1 °F 14.0 °F 58% 29.92 in 10.0 mi NW 12.7 mph - N/A   Overcast
1:35 PM 27.7 °F 17.6 °F 12.2 °F 52% 29.92 in 10.0 mi NW 11.5 mph 18.4 mph N/A   Overcast
1:55 PM 28.0 °F 17.0 °F 12.6 °F 52% 29.92 in 10.0 mi NW 13.8 mph 18.4 mph N/A   Overcast
2:15 PM 28.4 °F 18.0 °F 11.5 °F 49% 29.93 in 10.0 mi NW 12.7 mph 18.4 mph N/A   Mostly Cloudy
2:34 PM 28.4 °F 17.5 °F 13.5 °F 54% 29.93 in 10.0 mi WNW 13.8 mph 20.7 mph N/A   Overcast
2:55 PM 27.9 °F 17.8 °F 13.1 °F 54% 29.93 in 10.0 mi NW 11.5 mph 19.6 mph N/A   Overcast
3:15 PM 29.8 °F 20.9 °F 12.0 °F 48% 29.93 in 10.0 mi NW 10.4 mph 16.1 mph N/A   Overcast
3:36 PM 28.8 °F 18.4 °F 10.0 °F 46% 29.94 in 10.0 mi NW 12.7 mph 17.3 mph N/A   Overcast
3:55 PM 27.9 °F 17.8 °F 7.5 °F 42% 29.95 in 10.0 mi NNW 11.5 mph 20.7 mph N/A   Mostly Cloudy
4:15 PM 28.8 °F 17.0 °F 9.1 °F 44% 29.96 in 10.0 mi North 16.1 mph 24.2 mph N/A   Scattered Clouds
4:36 PM 27.7 °F 15.6 °F 9.5 °F 46% 29.96 in 10.0 mi NNW 16.1 mph 19.6 mph N/A   Mostly Cloudy
4:55 PM 27.5 °F 17.4 °F 10.4 °F 49% 29.98 in 10.0 mi NNW 11.5 mph 19.6 mph N/A   Overcast
5:15 PM 27.5 °F 16.8 °F 11.3 °F 51% 29.98 in 10.0 mi NNW 12.7 mph 19.6 mph N/A   Overcast
5:35 PM 27.0 °F 16.7 °F 12.2 °F 54% 30.00 in 10.0 mi NNW 11.5 mph 20.7 mph N/A   Overcast
5:55 PM 26.4 °F 14.5 °F 12.6 °F 56% 30.01 in 10.0 mi NNW 15.0 mph 19.6 mph N/A   Overcast
6:15 PM 25.7 °F 13.1 °F 13.3 °F 59% 30.02 in 10.0 mi North 16.1 mph 24.2 mph N/A   Overcast
6:35 PM 25.2 °F 14.4 °F 13.1 °F 60% 30.03 in 10.0 mi NNW 11.5 mph 20.7 mph N/A   Overcast
6:55 PM 24.6 °F 13.8 °F 13.3 °F 62% 30.04 in 10.0 mi NNW 11.5 mph 20.7 mph N/A   Overcast
7:15 PM 23.9 °F 13.5 °F 14.4 °F 67% 30.05 in 10.0 mi NNW 10.4 mph 19.6 mph N/A   Overcast
7:35 PM 23.7 °F 14.0 °F 14.2 °F 67% 30.06 in 10.0 mi NNW 9.2 mph 16.1 mph N/A   Overcast
7:55 PM 23.7 °F 14.0 °F 13.6 °F 65% 30.07 in 10.0 mi NNW 9.2 mph 18.4 mph N/A   Overcast
8:15 PM 23.7 °F 14.7 °F 14.0 °F 66% 30.08 in 10.0 mi NNW 8.1 mph - N/A   Overcast
8:35 PM 23.5 °F 13.0 °F 14.2 °F 67% 30.09 in 10.0 mi NNW 10.4 mph 17.3 mph N/A   Overcast
8:55 PM 23.4 °F 12.8 °F 14.0 °F 67% 30.10 in 10.0 mi NNW 10.4 mph - N/A   Overcast
9:15 PM 23.0 °F 13.9 °F 13.8 °F 68% 30.11 in 10.0 mi North 8.1 mph - N/A   Overcast
9:35 PM 22.6 °F 13.4 °F 13.1 °F 67% 30.12 in 10.0 mi NNW 8.1 mph - N/A   Overcast
9:55 PM 22.8 °F 12.2 °F 10.4 °F 59% 30.13 in 10.0 mi NNW 10.4 mph 16.1 mph N/A   Overcast
10:15 PM 22.1 °F 12.0 °F 9.1 °F 58% 30.14 in 10.0 mi North 9.2 mph - N/A   Mostly Cloudy
10:35 PM 21.7 °F 15.5 °F 8.4 °F 57% 30.14 in 10.0 mi NNW 4.6 mph - N/A   Scattered Clouds
10:55 PM 21.0 °F 14.6 °F 7.5 °F 56% 30.15 in 10.0 mi NNW 4.6 mph - N/A   Clear
11:15 PM 20.3 °F 13.8 °F 6.8 °F 56% 30.15 in 10.0 mi NW 4.6 mph - N/A   Scattered Clouds
11:35 PM 18.9 °F 9.8 °F 5.9 °F 57% 30.15 in 10.0 mi NW 6.9 mph - N/A   Scattered Clouds
11:55 PM 19.0 °F 11.1 °F 5.7 °F 56% 30.16 in 10.0 mi NW 5.8 mph - N/A   Clear